owner,sensor,date,latitude,longitude,vertical_datum,sea_water_practical_salinity,qcFlag 
ENP,ioos.station.NOAA.NDBC:HCEF1:1,2019-11-01T00:00:00Z,25.2540,-80.4440,1.5,21.37,11111222 
ENP,ioos.station.NOAA.NDBC:HCEF1:1,2019-11-01T01:00:00Z,25.2540,-80.4440,1.5,21.68,11111222 
ENP,ioos.station.NOAA.NDBC:HCEF1:1,2019-11-01T02:00:00Z,25.2540,-80.4440,1.5,21.93,11111222 
ENP,ioos.station.NOAA.NDBC:HCEF1:1,2019-11-01T04:00:00Z,25.2540,-80.4440,1.5,22.17,11111222 
ENP,ioos.station.NOAA.NDBC:HCEF1:1,2019-11-01T05:00:00Z,25.2540,-80.4440,1.5,22.38,11111222 
ENP,ioos.station.NOAA.NDBC:HCEF1:1,2019-11-01T06:00:00Z,25.2540,-80.4440,1.5,22.5,11111222 
ENP,ioos.station.NOAA.NDBC:HCEF1:1,2019-11-01T07:00:00Z,25.2540,-80.4440,1.5,22.55,11111222 
ENP,ioos.station.NOAA.NDBC:HCEF1:1,2019-11-01T08:00:00Z,25.2540,-80.4440,1.5,22.52,11111222 
ENP,ioos.station.NOAA.NDBC:HCEF1:1,2019-11-01T09:00:00Z,25.2540,-80.4440,1.5,22.47,11111222 
ENP,ioos.station.NOAA.NDBC:HCEF1:1,2019-11-01T10:00:00Z,25.2540,-80.4440,1.5,21.93,11111222 
ENP,ioos.station.NOAA.NDBC:HCEF1:1,2019-11-01T11:00:00Z,25.2540,-80.4440,1.5,22.02,11111222 
ENP,ioos.station.NOAA.NDBC:HCEF1:1,2019-11-01T12:00:00Z,25.2540,-80.4440,1.5,20.34,11111222 
ENP,ioos.station.NOAA.NDBC:HCEF1:1,2019-11-01T13:00:00Z,25.2540,-80.4440,1.5,20.91,11111222 
ENP,ioos.station.NOAA.NDBC:HCEF1:1,2019-11-01T15:00:00Z,25.2540,-80.4440,1.5,21.78,11111222 
ENP,ioos.station.NOAA.NDBC:HCEF1:1,2019-11-01T17:00:00Z,25.2540,-80.4440,1.5,21.28,11111222 
ENP,ioos.station.NOAA.NDBC:HCEF1:1,2019-11-01T18:00:00Z,25.2540,-80.4440,1.5,21.2,11111222 
ENP,ioos.station.NOAA.NDBC:HCEF1:1,2019-11-01T19:00:00Z,25.2540,-80.4440,1.5,21.23,11111222 
ENP,ioos.station.NOAA.NDBC:HCEF1:1,2019-11-01T20:00:00Z,25.2540,-80.4440,1.5,20.6,11111222 
ENP,ioos.station.NOAA.NDBC:HCEF1:1,2019-11-01T21:00:00Z,25.2540,-80.4440,1.5,20.87,11111222 
ENP,ioos.station.NOAA.NDBC:HCEF1:1,2019-11-01T23:00:00Z,25.2540,-80.4440,1.5,21.4,11111222 
ENP,ioos.station.NOAA.NDBC:HCEF1:1,2019-11-02T00:00:00Z,25.2540,-80.4440,1.5,21.86,11111222 
ENP,ioos.station.NOAA.NDBC:HCEF1:1,2019-11-02T02:00:00Z,25.2540,-80.4440,1.5,22.04,11111222 
ENP,ioos.station.NOAA.NDBC:HCEF1:1,2019-11-02T04:00:00Z,25.2540,-80.4440,1.5,22.13,11111222 
ENP,ioos.station.NOAA.NDBC:HCEF1:1,2019-11-02T05:00:00Z,25.2540,-80.4440,1.5,21.94,11111222 
ENP,ioos.station.NOAA.NDBC:HCEF1:1,2019-11-02T06:00:00Z,25.2540,-80.4440,1.5,22.15,11111222 
ENP,ioos.station.NOAA.NDBC:HCEF1:1,2019-11-02T07:00:00Z,25.2540,-80.4440,1.5,21.81,11111222 
ENP,ioos.station.NOAA.NDBC:HCEF1:1,2019-11-02T08:00:00Z,25.2540,-80.4440,1.5,21.7,11111222 
ENP,ioos.station.NOAA.NDBC:HCEF1:1,2019-11-02T09:00:00Z,25.2540,-80.4440,1.5,21.49,11111222 
ENP,ioos.station.NOAA.NDBC:HCEF1:1,2019-11-02T10:00:00Z,25.2540,-80.4440,1.5,21.41,11111222 
ENP,ioos.station.NOAA.NDBC:HCEF1:1,2019-11-02T11:00:00Z,25.2540,-80.4440,1.5,21.69,11111222 
ENP,ioos.station.NOAA.NDBC:HCEF1:1,2019-11-02T13:00:00Z,25.2540,-80.4440,1.5,21.52,11111222 
ENP,ioos.station.NOAA.NDBC:HCEF1:1,2019-11-02T14:00:00Z,25.2540,-80.4440,1.5,22.25,11111222 
ENP,ioos.station.NOAA.NDBC:HCEF1:1,2019-11-02T15:00:00Z,25.2540,-80.4440,1.5,21.42,11111222 
ENP,ioos.station.NOAA.NDBC:HCEF1:1,2019-11-02T16:00:00Z,25.2540,-80.4440,1.5,19.38,11111222 
ENP,ioos.station.NOAA.NDBC:HCEF1:1,2019-11-02T17:00:00Z,25.2540,-80.4440,1.5,16.59,11111222 
ENP,ioos.station.NOAA.NDBC:HCEF1:1,2019-11-02T18:00:00Z,25.2540,-80.4440,1.5,11.1,11111222 
ENP,ioos.station.NOAA.NDBC:HCEF1:1,2019-11-02T19:00:00Z,25.2540,-80.4440,1.5,9.79,11111222 
ENP,ioos.station.NOAA.NDBC:HCEF1:1,2019-11-02T20:00:00Z,25.2540,-80.4440,1.5,9.55,11111222 
ENP,ioos.station.NOAA.NDBC:HCEF1:1,2019-11-02T21:00:00Z,25.2540,-80.4440,1.5,11.32,11111222 
ENP,ioos.station.NOAA.NDBC:HCEF1:1,2019-11-02T22:00:00Z,25.2540,-80.4440,1.5,9.58,11111222 
ENP,ioos.station.NOAA.NDBC:HCEF1:1,2019-11-02T23:00:00Z,25.2540,-80.4440,1.5,11.46,11111222 
ENP,ioos.station.NOAA.NDBC:HCEF1:1,2019-11-03T00:00:00Z,25.2540,-80.4440,1.5,16.13,11111222 
ENP,ioos.station.NOAA.NDBC:HCEF1:1,2019-11-03T03:00:00Z,25.2540,-80.4440,1.5,21.14,11111222 
ENP,ioos.station.NOAA.NDBC:HCEF1:1,2019-11-03T05:00:00Z,25.2540,-80.4440,1.5,21.12,11111222 
ENP,ioos.station.NOAA.NDBC:HCEF1:1,2019-11-03T06:00:00Z,25.2540,-80.4440,1.5,20.67,11111222 
ENP,ioos.station.NOAA.NDBC:HCEF1:1,2019-11-03T07:00:00Z,25.2540,-80.4440,1.5,20.72,11111222 
ENP,ioos.station.NOAA.NDBC:HCEF1:1,2019-11-03T08:00:00Z,25.2540,-80.4440,1.5,20.66,11111222 
ENP,ioos.station.NOAA.NDBC:HCEF1:1,2019-11-03T09:00:00Z,25.2540,-80.4440,1.5,20.25,11111222 
ENP,ioos.station.NOAA.NDBC:HCEF1:1,2019-11-03T10:00:00Z,25.2540,-80.4440,1.5,20.1,11111222 
ENP,ioos.station.NOAA.NDBC:HCEF1:1,2019-11-03T11:00:00Z,25.2540,-80.4440,1.5,20.2,11111222 
ENP,ioos.station.NOAA.NDBC:HCEF1:1,2019-11-03T12:00:00Z,25.2540,-80.4440,1.5,20.61,11111222 
ENP,ioos.station.NOAA.NDBC:HCEF1:1,2019-11-03T13:00:00Z,25.2540,-80.4440,1.5,20.74,11111222 
ENP,ioos.station.NOAA.NDBC:HCEF1:1,2019-11-03T14:00:00Z,25.2540,-80.4440,1.5,20.5,11111222 
ENP,ioos.station.NOAA.NDBC:HCEF1:1,2019-11-03T15:00:00Z,25.2540,-80.4440,1.5,17.77,11111222 
ENP,ioos.station.NOAA.NDBC:HCEF1:1,2019-11-03T16:00:00Z,25.2540,-80.4440,1.5,18.59,11111222 
ENP,ioos.station.NOAA.NDBC:HCEF1:1,2019-11-03T17:00:00Z,25.2540,-80.4440,1.5,17.57,11111222 
ENP,ioos.station.NOAA.NDBC:HCEF1:1,2019-11-03T18:00:00Z,25.2540,-80.4440,1.5,17.59,11111222 
ENP,ioos.station.NOAA.NDBC:HCEF1:1,2019-11-03T19:00:00Z,25.2540,-80.4440,1.5,17.78,11111222 
ENP,ioos.station.NOAA.NDBC:HCEF1:1,2019-11-03T20:00:00Z,25.2540,-80.4440,1.5,17.23,11111222 
ENP,ioos.station.NOAA.NDBC:HCEF1:1,2019-11-03T21:00:00Z,25.2540,-80.4440,1.5,16.04,11111222 
ENP,ioos.station.NOAA.NDBC:HCEF1:1,2019-11-03T22:00:00Z,25.2540,-80.4440,1.5,13.06,11111222 
ENP,ioos.station.NOAA.NDBC:HCEF1:1,2019-11-03T23:00:00Z,25.2540,-80.4440,1.5,13.25,11111222 
ENP,ioos.station.NOAA.NDBC:HCEF1:1,2019-11-04T00:00:00Z,25.2540,-80.4440,1.5,18.83,11111222 
ENP,ioos.station.NOAA.NDBC:HCEF1:1,2019-11-04T02:00:00Z,25.2540,-80.4440,1.5,15.4,11111222 
ENP,ioos.station.NOAA.NDBC:HCEF1:1,2019-11-04T03:00:00Z,25.2540,-80.4440,1.5,19.13,11111222 
ENP,ioos.station.NOAA.NDBC:HCEF1:1,2019-11-04T05:00:00Z,25.2540,-80.4440,1.5,16.84,11111222 
ENP,ioos.station.NOAA.NDBC:HCEF1:1,2019-11-04T16:00:00Z,25.2540,-80.4440,1.5,12.13,11111222 
ENP,ioos.station.NOAA.NDBC:HCEF1:1,2019-11-04T17:00:00Z,25.2540,-80.4440,1.5,12.47,11111222 
ENP,ioos.station.NOAA.NDBC:HCEF1:1,2019-11-04T18:00:00Z,25.2540,-80.4440,1.5,12.53,11111222 
ENP,ioos.station.NOAA.NDBC:HCEF1:1,2019-11-04T19:00:00Z,25.2540,-80.4440,1.5,12.56,11111222 
ENP,ioos.station.NOAA.NDBC:HCEF1:1,2019-11-04T20:00:00Z,25.2540,-80.4440,1.5,12.64,11111222 
ENP,ioos.station.NOAA.NDBC:HCEF1:1,2019-11-04T21:00:00Z,25.2540,-80.4440,1.5,12.71,11111222 
ENP,ioos.station.NOAA.NDBC:HCEF1:1,2019-11-04T22:00:00Z,25.2540,-80.4440,1.5,12.81,11111222 
ENP,ioos.station.NOAA.NDBC:HCEF1:1,2019-11-04T23:00:00Z,25.2540,-80.4440,1.5,12.94,11111222 
ENP,ioos.station.NOAA.NDBC:HCEF1:1,2019-11-05T00:00:00Z,25.2540,-80.4440,1.5,13.13,11111222 
ENP,ioos.station.NOAA.NDBC:HCEF1:1,2019-11-05T01:00:00Z,25.2540,-80.4440,1.5,13.5,11111222 
ENP,ioos.station.NOAA.NDBC:HCEF1:1,2019-11-05T03:00:00Z,25.2540,-80.4440,1.5,13.68,11111222 
ENP,ioos.station.NOAA.NDBC:HCEF1:1,2019-11-05T05:00:00Z,25.2540,-80.4440,1.5,13.71,11111222 
ENP,ioos.station.NOAA.NDBC:HCEF1:1,2019-11-05T06:00:00Z,25.2540,-80.4440,1.5,14.02,11111222 
ENP,ioos.station.NOAA.NDBC:HCEF1:1,2019-11-05T07:00:00Z,25.2540,-80.4440,1.5,14.16,11111222 
ENP,ioos.station.NOAA.NDBC:HCEF1:1,2019-11-05T08:00:00Z,25.2540,-80.4440,1.5,14.28,11111222 
ENP,ioos.station.NOAA.NDBC:HCEF1:1,2019-11-05T09:00:00Z,25.2540,-80.4440,1.5,14.21,11111222 
ENP,ioos.station.NOAA.NDBC:HCEF1:1,2019-11-05T10:00:00Z,25.2540,-80.4440,1.5,14.26,11111222 
ENP,ioos.station.NOAA.NDBC:HCEF1:1,2019-11-05T11:00:00Z,25.2540,-80.4440,1.5,14.41,11111222 
ENP,ioos.station.NOAA.NDBC:HCEF1:1,2019-11-05T12:00:00Z,25.2540,-80.4440,1.5,14.5,11111222 
ENP,ioos.station.NOAA.NDBC:HCEF1:1,2019-11-05T13:00:00Z,25.2540,-80.4440,1.5,14.84,11111222 
ENP,ioos.station.NOAA.NDBC:HCEF1:1,2019-11-05T14:00:00Z,25.2540,-80.4440,1.5,15.02,11111222 
ENP,ioos.station.NOAA.NDBC:HCEF1:1,2019-11-05T15:00:00Z,25.2540,-80.4440,1.5,15.24,11111222 
ENP,ioos.station.NOAA.NDBC:HCEF1:1,2019-11-05T16:00:00Z,25.2540,-80.4440,1.5,15.74,11111222 
ENP,ioos.station.NOAA.NDBC:HCEF1:1,2019-11-05T17:00:00Z,25.2540,-80.4440,1.5,15.95,11111222 
ENP,ioos.station.NOAA.NDBC:HCEF1:1,2019-11-05T18:00:00Z,25.2540,-80.4440,1.5,15.98,11111222 
ENP,ioos.station.NOAA.NDBC:HCEF1:1,2019-11-05T19:00:00Z,25.2540,-80.4440,1.5,15.97,11111222 
ENP,ioos.station.NOAA.NDBC:HCEF1:1,2019-11-05T20:00:00Z,25.2540,-80.4440,1.5,15.94,11111222 
ENP,ioos.station.NOAA.NDBC:HCEF1:1,2019-11-05T21:00:00Z,25.2540,-80.4440,1.5,15.95,11111222 
ENP,ioos.station.NOAA.NDBC:HCEF1:1,2019-11-05T22:00:00Z,25.2540,-80.4440,1.5,15.78,11111222 
ENP,ioos.station.NOAA.NDBC:HCEF1:1,2019-11-05T23:00:00Z,25.2540,-80.4440,1.5,15.83,11111222 
ENP,ioos.station.NOAA.NDBC:HCEF1:1,2019-11-06T00:00:00Z,25.2540,-80.4440,1.5,15.98,11111222 
ENP,ioos.station.NOAA.NDBC:HCEF1:1,2019-11-06T01:00:00Z,25.2540,-80.4440,1.5,16.06,11111222 
ENP,ioos.station.NOAA.NDBC:HCEF1:1,2019-11-06T02:00:00Z,25.2540,-80.4440,1.5,16.06,11111222 
ENP,ioos.station.NOAA.NDBC:HCEF1:1,2019-11-06T03:00:00Z,25.2540,-80.4440,1.5,18.42,11111222 
ENP,ioos.station.NOAA.NDBC:HCEF1:1,2019-11-06T05:00:00Z,25.2540,-80.4440,1.5,20.32,11111222 
ENP,ioos.station.NOAA.NDBC:HCEF1:1,2019-11-06T06:00:00Z,25.2540,-80.4440,1.5,21.12,11111222 
ENP,ioos.station.NOAA.NDBC:HCEF1:1,2019-11-06T07:00:00Z,25.2540,-80.4440,1.5,21.43,11111222 
ENP,ioos.station.NOAA.NDBC:HCEF1:1,2019-11-06T08:00:00Z,25.2540,-80.4440,1.5,21.58,11111222 
ENP,ioos.station.NOAA.NDBC:HCEF1:1,2019-11-06T09:00:00Z,25.2540,-80.4440,1.5,21.62,11111222 
ENP,ioos.station.NOAA.NDBC:HCEF1:1,2019-11-06T10:00:00Z,25.2540,-80.4440,1.5,21.72,11111222 
ENP,ioos.station.NOAA.NDBC:HCEF1:1,2019-11-06T11:00:00Z,25.2540,-80.4440,1.5,22.04,11111222 
ENP,ioos.station.NOAA.NDBC:HCEF1:1,2019-11-06T12:00:00Z,25.2540,-80.4440,1.5,22.38,11111222 
ENP,ioos.station.NOAA.NDBC:HCEF1:1,2019-11-06T13:00:00Z,25.2540,-80.4440,1.5,22.54,11111222 
ENP,ioos.station.NOAA.NDBC:HCEF1:1,2019-11-06T14:00:00Z,25.2540,-80.4440,1.5,22.56,11111222 
ENP,ioos.station.NOAA.NDBC:HCEF1:1,2019-11-06T15:00:00Z,25.2540,-80.4440,1.5,21.46,11111222 
ENP,ioos.station.NOAA.NDBC:HCEF1:1,2019-11-06T16:00:00Z,25.2540,-80.4440,1.5,17.67,11111222 
ENP,ioos.station.NOAA.NDBC:HCEF1:1,2019-11-06T17:00:00Z,25.2540,-80.4440,1.5,15.73,11111222 
ENP,ioos.station.NOAA.NDBC:HCEF1:1,2019-11-06T18:00:00Z,25.2540,-80.4440,1.5,17.21,11111222 
ENP,ioos.station.NOAA.NDBC:HCEF1:1,2019-11-06T19:00:00Z,25.2540,-80.4440,1.5,16.34,11111222 
ENP,ioos.station.NOAA.NDBC:HCEF1:1,2019-11-06T20:00:00Z,25.2540,-80.4440,1.5,16.67,11111222 
ENP,ioos.station.NOAA.NDBC:HCEF1:1,2019-11-06T21:00:00Z,25.2540,-80.4440,1.5,17.1,11111222 
ENP,ioos.station.NOAA.NDBC:HCEF1:1,2019-11-06T22:00:00Z,25.2540,-80.4440,1.5,17.06,11111222 
ENP,ioos.station.NOAA.NDBC:HCEF1:1,2019-11-06T23:00:00Z,25.2540,-80.4440,1.5,17.11,11111222 
ENP,ioos.station.NOAA.NDBC:HCEF1:1,2019-11-07T00:00:00Z,25.2540,-80.4440,1.5,17.35,11111222 
ENP,ioos.station.NOAA.NDBC:HCEF1:1,2019-11-07T01:00:00Z,25.2540,-80.4440,1.5,17.56,11111222 
ENP,ioos.station.NOAA.NDBC:HCEF1:1,2019-11-07T02:00:00Z,25.2540,-80.4440,1.5,17.66,11111222 
ENP,ioos.station.NOAA.NDBC:HCEF1:1,2019-11-07T03:00:00Z,25.2540,-80.4440,1.5,17.95,11111222 
ENP,ioos.station.NOAA.NDBC:HCEF1:1,2019-11-07T05:00:00Z,25.2540,-80.4440,1.5,20.87,11111222 
ENP,ioos.station.NOAA.NDBC:HCEF1:1,2019-11-07T06:00:00Z,25.2540,-80.4440,1.5,21.83,11111222 
ENP,ioos.station.NOAA.NDBC:HCEF1:1,2019-11-07T07:00:00Z,25.2540,-80.4440,1.5,21.56,11111222 
ENP,ioos.station.NOAA.NDBC:HCEF1:1,2019-11-07T08:00:00Z,25.2540,-80.4440,1.5,22.27,11111222 
ENP,ioos.station.NOAA.NDBC:HCEF1:1,2019-11-07T09:00:00Z,25.2540,-80.4440,1.5,22.74,11111222 
ENP,ioos.station.NOAA.NDBC:HCEF1:1,2019-11-07T10:00:00Z,25.2540,-80.4440,1.5,22.84,11111222 
ENP,ioos.station.NOAA.NDBC:HCEF1:1,2019-11-07T11:00:00Z,25.2540,-80.4440,1.5,22.54,11111222 
ENP,ioos.station.NOAA.NDBC:HCEF1:1,2019-11-07T12:00:00Z,25.2540,-80.4440,1.5,22.08,11111222 
ENP,ioos.station.NOAA.NDBC:HCEF1:1,2019-11-07T13:00:00Z,25.2540,-80.4440,1.5,22.38,11111222 
ENP,ioos.station.NOAA.NDBC:HCEF1:1,2019-11-07T14:00:00Z,25.2540,-80.4440,1.5,22.54,11111222 
ENP,ioos.station.NOAA.NDBC:HCEF1:1,2019-11-07T15:00:00Z,25.2540,-80.4440,1.5,22.48,11111222 
ENP,ioos.station.NOAA.NDBC:HCEF1:1,2019-11-07T16:00:00Z,25.2540,-80.4440,1.5,22.94,11111222 
ENP,ioos.station.NOAA.NDBC:HCEF1:1,2019-11-07T17:00:00Z,25.2540,-80.4440,1.5,23.31,11111222 
ENP,ioos.station.NOAA.NDBC:HCEF1:1,2019-11-07T19:00:00Z,25.2540,-80.4440,1.5,23.65,11111222 
ENP,ioos.station.NOAA.NDBC:HCEF1:1,2019-11-07T20:00:00Z,25.2540,-80.4440,1.5,23.97,11111222 
ENP,ioos.station.NOAA.NDBC:HCEF1:1,2019-11-07T21:00:00Z,25.2540,-80.4440,1.5,24.0,11111222 
ENP,ioos.station.NOAA.NDBC:HCEF1:1,2019-11-07T22:00:00Z,25.2540,-80.4440,1.5,24.05,11111222 
ENP,ioos.station.NOAA.NDBC:HCEF1:1,2019-11-07T23:00:00Z,25.2540,-80.4440,1.5,24.18,11111222 
ENP,ioos.station.NOAA.NDBC:HCEF1:1,2019-11-08T00:00:00Z,25.2540,-80.4440,1.5,24.17,11111222 
ENP,ioos.station.NOAA.NDBC:HCEF1:1,2019-11-08T01:00:00Z,25.2540,-80.4440,1.5,24.27,11111222 
ENP,ioos.station.NOAA.NDBC:HCEF1:1,2019-11-08T03:00:00Z,25.2540,-80.4440,1.5,24.39,11111222 
ENP,ioos.station.NOAA.NDBC:HCEF1:1,2019-11-08T05:00:00Z,25.2540,-80.4440,1.5,24.82,11111222 
ENP,ioos.station.NOAA.NDBC:HCEF1:1,2019-11-08T07:00:00Z,25.2540,-80.4440,1.5,25.42,11111222 
ENP,ioos.station.NOAA.NDBC:HCEF1:1,2019-11-08T08:00:00Z,25.2540,-80.4440,1.5,25.71,11111222 
ENP,ioos.station.NOAA.NDBC:HCEF1:1,2019-11-08T09:00:00Z,25.2540,-80.4440,1.5,25.86,11111222 
ENP,ioos.station.NOAA.NDBC:HCEF1:1,2019-11-08T10:00:00Z,25.2540,-80.4440,1.5,26.02,11111222 
ENP,ioos.station.NOAA.NDBC:HCEF1:1,2019-11-08T11:00:00Z,25.2540,-80.4440,1.5,26.25,11111222 
ENP,ioos.station.NOAA.NDBC:HCEF1:1,2019-11-08T12:00:00Z,25.2540,-80.4440,1.5,26.33,11111222 
ENP,ioos.station.NOAA.NDBC:HCEF1:1,2019-11-08T14:00:00Z,25.2540,-80.4440,1.5,26.41,11111222 
ENP,ioos.station.NOAA.NDBC:HCEF1:1,2019-11-08T15:00:00Z,25.2540,-80.4440,1.5,26.53,11111222 
ENP,ioos.station.NOAA.NDBC:HCEF1:1,2019-11-08T17:00:00Z,25.2540,-80.4440,1.5,26.4,11111222 
ENP,ioos.station.NOAA.NDBC:HCEF1:1,2019-11-08T19:00:00Z,25.2540,-80.4440,1.5,26.26,11111222 
ENP,ioos.station.NOAA.NDBC:HCEF1:1,2019-11-08T20:00:00Z,25.2540,-80.4440,1.5,26.46,11111222 
ENP,ioos.station.NOAA.NDBC:HCEF1:1,2019-11-08T21:00:00Z,25.2540,-80.4440,1.5,25.1,11111222 
ENP,ioos.station.NOAA.NDBC:HCEF1:1,2019-11-08T22:00:00Z,25.2540,-80.4440,1.5,24.42,11111222 
ENP,ioos.station.NOAA.NDBC:HCEF1:1,2019-11-08T23:00:00Z,25.2540,-80.4440,1.5,24.58,11111222 
ENP,ioos.station.NOAA.NDBC:HCEF1:1,2019-11-09T00:00:00Z,25.2540,-80.4440,1.5,24.55,11111222 
ENP,ioos.station.NOAA.NDBC:HCEF1:1,2019-11-09T01:00:00Z,25.2540,-80.4440,1.5,25.17,11111222 
ENP,ioos.station.NOAA.NDBC:HCEF1:1,2019-11-09T02:00:00Z,25.2540,-80.4440,1.5,26.1,11111222 
ENP,ioos.station.NOAA.NDBC:HCEF1:1,2019-11-09T03:00:00Z,25.2540,-80.4440,1.5,26.2,11111222 
ENP,ioos.station.NOAA.NDBC:HCEF1:1,2019-11-09T05:00:00Z,25.2540,-80.4440,1.5,26.46,11111222 
ENP,ioos.station.NOAA.NDBC:HCEF1:1,2019-11-09T07:00:00Z,25.2540,-80.4440,1.5,26.83,11111222 
ENP,ioos.station.NOAA.NDBC:HCEF1:1,2019-11-09T08:00:00Z,25.2540,-80.4440,1.5,26.83,11111222 
ENP,ioos.station.NOAA.NDBC:HCEF1:1,2019-11-09T09:00:00Z,25.2540,-80.4440,1.5,26.83,11111222 
ENP,ioos.station.NOAA.NDBC:HCEF1:1,2019-11-09T10:00:00Z,25.2540,-80.4440,1.5,26.72,11111222 
ENP,ioos.station.NOAA.NDBC:HCEF1:1,2019-11-09T11:00:00Z,25.2540,-80.4440,1.5,26.04,11111222 
ENP,ioos.station.NOAA.NDBC:HCEF1:1,2019-11-09T12:00:00Z,25.2540,-80.4440,1.5,26.03,11111222 
ENP,ioos.station.NOAA.NDBC:HCEF1:1,2019-11-09T13:00:00Z,25.2540,-80.4440,1.5,25.86,11111222 
ENP,ioos.station.NOAA.NDBC:HCEF1:1,2019-11-09T14:00:00Z,25.2540,-80.4440,1.5,25.73,11111222 
ENP,ioos.station.NOAA.NDBC:HCEF1:1,2019-11-09T15:00:00Z,25.2540,-80.4440,1.5,25.91,11111222 
ENP,ioos.station.NOAA.NDBC:HCEF1:1,2019-11-09T16:00:00Z,25.2540,-80.4440,1.5,25.78,11111222 
ENP,ioos.station.NOAA.NDBC:HCEF1:1,2019-11-09T17:00:00Z,25.2540,-80.4440,1.5,25.66,11111222 
ENP,ioos.station.NOAA.NDBC:HCEF1:1,2019-11-09T19:00:00Z,25.2540,-80.4440,1.5,25.63,11111222 
ENP,ioos.station.NOAA.NDBC:HCEF1:1,2019-11-09T20:00:00Z,25.2540,-80.4440,1.5,25.78,11111222 
ENP,ioos.station.NOAA.NDBC:HCEF1:1,2019-11-09T21:00:00Z,25.2540,-80.4440,1.5,25.96,11111222 
ENP,ioos.station.NOAA.NDBC:HCEF1:1,2019-11-09T22:00:00Z,25.2540,-80.4440,1.5,26.14,11111222 
ENP,ioos.station.NOAA.NDBC:HCEF1:1,2019-11-09T23:00:00Z,25.2540,-80.4440,1.5,26.75,11111222 
ENP,ioos.station.NOAA.NDBC:HCEF1:1,2019-11-10T00:00:00Z,25.2540,-80.4440,1.5,27.12,11111222 
ENP,ioos.station.NOAA.NDBC:HCEF1:1,2019-11-10T02:00:00Z,25.2540,-80.4440,1.5,26.85,11111222 
ENP,ioos.station.NOAA.NDBC:HCEF1:1,2019-11-10T03:00:00Z,25.2540,-80.4440,1.5,27.04,11111222 
ENP,ioos.station.NOAA.NDBC:HCEF1:1,2019-11-10T05:00:00Z,25.2540,-80.4440,1.5,27.33,11111222 
ENP,ioos.station.NOAA.NDBC:HCEF1:1,2019-11-10T07:00:00Z,25.2540,-80.4440,1.5,28.24,11111222 
ENP,ioos.station.NOAA.NDBC:HCEF1:1,2019-11-10T08:00:00Z,25.2540,-80.4440,1.5,28.29,11111222 
ENP,ioos.station.NOAA.NDBC:HCEF1:1,2019-11-10T09:00:00Z,25.2540,-80.4440,1.5,28.27,11111222 
ENP,ioos.station.NOAA.NDBC:HCEF1:1,2019-11-10T10:00:00Z,25.2540,-80.4440,1.5,28.35,11111222 
ENP,ioos.station.NOAA.NDBC:HCEF1:1,2019-11-10T11:00:00Z,25.2540,-80.4440,1.5,28.67,11111222 
ENP,ioos.station.NOAA.NDBC:HCEF1:1,2019-11-10T12:00:00Z,25.2540,-80.4440,1.5,28.79,11111222 
ENP,ioos.station.NOAA.NDBC:HCEF1:1,2019-11-10T13:00:00Z,25.2540,-80.4440,1.5,28.8,11111222 
ENP,ioos.station.NOAA.NDBC:HCEF1:1,2019-11-10T14:00:00Z,25.2540,-80.4440,1.5,28.88,11111222 
ENP,ioos.station.NOAA.NDBC:HCEF1:1,2019-11-10T15:00:00Z,25.2540,-80.4440,1.5,28.72,11111222 
ENP,ioos.station.NOAA.NDBC:HCEF1:1,2019-11-10T16:00:00Z,25.2540,-80.4440,1.5,28.67,11111222 
ENP,ioos.station.NOAA.NDBC:HCEF1:1,2019-11-10T17:00:00Z,25.2540,-80.4440,1.5,28.77,11111222 
ENP,ioos.station.NOAA.NDBC:HCEF1:1,2019-11-10T19:00:00Z,25.2540,-80.4440,1.5,29.29,11111222 
ENP,ioos.station.NOAA.NDBC:HCEF1:1,2019-11-10T20:00:00Z,25.2540,-80.4440,1.5,29.18,11111222 
ENP,ioos.station.NOAA.NDBC:HCEF1:1,2019-11-10T21:00:00Z,25.2540,-80.4440,1.5,29.15,11111222 
ENP,ioos.station.NOAA.NDBC:HCEF1:1,2019-11-10T22:00:00Z,25.2540,-80.4440,1.5,29.21,11111222 
ENP,ioos.station.NOAA.NDBC:HCEF1:1,2019-11-11T02:00:00Z,25.2540,-80.4440,1.5,30.12,11111222 
ENP,ioos.station.NOAA.NDBC:HCEF1:1,2019-11-11T11:00:00Z,25.2540,-80.4440,1.5,30.67,11111222 
ENP,ioos.station.NOAA.NDBC:HCEF1:1,2019-11-11T12:00:00Z,25.2540,-80.4440,1.5,30.67,11111222 
ENP,ioos.station.NOAA.NDBC:HCEF1:1,2019-11-11T14:00:00Z,25.2540,-80.4440,1.5,30.36,11111222 
ENP,ioos.station.NOAA.NDBC:HCEF1:1,2019-11-11T15:00:00Z,25.2540,-80.4440,1.5,30.28,11111222 
ENP,ioos.station.NOAA.NDBC:HCEF1:1,2019-11-11T17:00:00Z,25.2540,-80.4440,1.5,30.47,11111222 
ENP,ioos.station.NOAA.NDBC:HCEF1:1,2019-11-11T19:00:00Z,25.2540,-80.4440,1.5,30.6,11111222 
ENP,ioos.station.NOAA.NDBC:HCEF1:1,2019-11-11T20:00:00Z,25.2540,-80.4440,1.5,30.75,11111222 
ENP,ioos.station.NOAA.NDBC:HCEF1:1,2019-11-11T21:00:00Z,25.2540,-80.4440,1.5,30.94,11111222 
ENP,ioos.station.NOAA.NDBC:HCEF1:1,2019-11-11T22:00:00Z,25.2540,-80.4440,1.5,31.04,11111222 
ENP,ioos.station.NOAA.NDBC:HCEF1:1,2019-11-11T23:00:00Z,25.2540,-80.4440,1.5,31.09,11111222 
ENP,ioos.station.NOAA.NDBC:HCEF1:1,2019-11-12T00:00:00Z,25.2540,-80.4440,1.5,31.13,11111222 
ENP,ioos.station.NOAA.NDBC:HCEF1:1,2019-11-12T01:00:00Z,25.2540,-80.4440,1.5,31.29,11111222 
ENP,ioos.station.NOAA.NDBC:HCEF1:1,2019-11-12T02:00:00Z,25.2540,-80.4440,1.5,31.4,11111222 
ENP,ioos.station.NOAA.NDBC:HCEF1:1,2019-11-12T03:00:00Z,25.2540,-80.4440,1.5,31.2,11111222 
ENP,ioos.station.NOAA.NDBC:HCEF1:1,2019-11-12T05:00:00Z,25.2540,-80.4440,1.5,31.09,11111222 
ENP,ioos.station.NOAA.NDBC:HCEF1:1,2019-11-12T07:00:00Z,25.2540,-80.4440,1.5,31.29,11111222 
ENP,ioos.station.NOAA.NDBC:HCEF1:1,2019-11-12T08:00:00Z,25.2540,-80.4440,1.5,31.36,11111222 
ENP,ioos.station.NOAA.NDBC:HCEF1:1,2019-11-12T09:00:00Z,25.2540,-80.4440,1.5,31.43,11111222 
ENP,ioos.station.NOAA.NDBC:HCEF1:1,2019-11-12T10:00:00Z,25.2540,-80.4440,1.5,31.47,11111222 
ENP,ioos.station.NOAA.NDBC:HCEF1:1,2019-11-12T11:00:00Z,25.2540,-80.4440,1.5,31.49,11111222 
ENP,ioos.station.NOAA.NDBC:HCEF1:1,2019-11-12T12:00:00Z,25.2540,-80.4440,1.5,31.51,11111222 
ENP,ioos.station.NOAA.NDBC:HCEF1:1,2019-11-12T14:00:00Z,25.2540,-80.4440,1.5,31.5,11111222 
ENP,ioos.station.NOAA.NDBC:HCEF1:1,2019-11-12T15:00:00Z,25.2540,-80.4440,1.5,31.52,11111222 
ENP,ioos.station.NOAA.NDBC:HCEF1:1,2019-11-12T16:00:00Z,25.2540,-80.4440,1.5,31.53,11111222 
ENP,ioos.station.NOAA.NDBC:HCEF1:1,2019-11-12T17:00:00Z,25.2540,-80.4440,1.5,31.55,11111222 
ENP,ioos.station.NOAA.NDBC:HCEF1:1,2019-11-12T19:00:00Z,25.2540,-80.4440,1.5,31.48,11111222 
ENP,ioos.station.NOAA.NDBC:HCEF1:1,2019-11-12T20:00:00Z,25.2540,-80.4440,1.5,31.52,11111222 
ENP,ioos.station.NOAA.NDBC:HCEF1:1,2019-11-12T21:00:00Z,25.2540,-80.4440,1.5,31.53,11111222 
ENP,ioos.station.NOAA.NDBC:HCEF1:1,2019-11-12T22:00:00Z,25.2540,-80.4440,1.5,31.55,11111222 
ENP,ioos.station.NOAA.NDBC:HCEF1:1,2019-11-12T23:00:00Z,25.2540,-80.4440,1.5,31.57,11111222 
ENP,ioos.station.NOAA.NDBC:HCEF1:1,2019-11-13T00:00:00Z,25.2540,-80.4440,1.5,31.58,11111222 
ENP,ioos.station.NOAA.NDBC:HCEF1:1,2019-11-13T01:00:00Z,25.2540,-80.4440,1.5,31.59,11111222 
ENP,ioos.station.NOAA.NDBC:HCEF1:1,2019-11-13T02:00:00Z,25.2540,-80.4440,1.5,31.61,11111222 
ENP,ioos.station.NOAA.NDBC:HCEF1:1,2019-11-13T03:00:00Z,25.2540,-80.4440,1.5,31.63,11111222 
ENP,ioos.station.NOAA.NDBC:HCEF1:1,2019-11-13T05:00:00Z,25.2540,-80.4440,1.5,31.72,11111222 
ENP,ioos.station.NOAA.NDBC:HCEF1:1,2019-11-13T07:00:00Z,25.2540,-80.4440,1.5,31.77,11111222 
ENP,ioos.station.NOAA.NDBC:HCEF1:1,2019-11-13T08:00:00Z,25.2540,-80.4440,1.5,31.77,11111222 
ENP,ioos.station.NOAA.NDBC:HCEF1:1,2019-11-13T09:00:00Z,25.2540,-80.4440,1.5,31.81,11111222 
ENP,ioos.station.NOAA.NDBC:HCEF1:1,2019-11-13T10:00:00Z,25.2540,-80.4440,1.5,31.84,11111222 
ENP,ioos.station.NOAA.NDBC:HCEF1:1,2019-11-13T11:00:00Z,25.2540,-80.4440,1.5,31.85,11111222 
ENP,ioos.station.NOAA.NDBC:HCEF1:1,2019-11-13T12:00:00Z,25.2540,-80.4440,1.5,31.84,11111222 
ENP,ioos.station.NOAA.NDBC:HCEF1:1,2019-11-13T13:00:00Z,25.2540,-80.4440,1.5,31.73,11111222 
ENP,ioos.station.NOAA.NDBC:HCEF1:1,2019-11-13T14:00:00Z,25.2540,-80.4440,1.5,31.69,11111222 
ENP,ioos.station.NOAA.NDBC:HCEF1:1,2019-11-13T15:00:00Z,25.2540,-80.4440,1.5,31.69,11111222 
ENP,ioos.station.NOAA.NDBC:HCEF1:1,2019-11-13T17:00:00Z,25.2540,-80.4440,1.5,31.71,11111222 
ENP,ioos.station.NOAA.NDBC:HCEF1:1,2019-11-13T18:00:00Z,25.2540,-80.4440,1.5,31.73,11111222 
ENP,ioos.station.NOAA.NDBC:HCEF1:1,2019-11-13T19:00:00Z,25.2540,-80.4440,1.5,31.69,11111222 
ENP,ioos.station.NOAA.NDBC:HCEF1:1,2019-11-13T20:00:00Z,25.2540,-80.4440,1.5,32.11,11111222 
ENP,ioos.station.NOAA.NDBC:HCEF1:1,2019-11-13T21:00:00Z,25.2540,-80.4440,1.5,32.25,11111222 
ENP,ioos.station.NOAA.NDBC:HCEF1:1,2019-11-13T22:00:00Z,25.2540,-80.4440,1.5,32.32,11111222 
ENP,ioos.station.NOAA.NDBC:HCEF1:1,2019-11-13T23:00:00Z,25.2540,-80.4440,1.5,32.28,11111222 
ENP,ioos.station.NOAA.NDBC:HCEF1:1,2019-11-14T00:00:00Z,25.2540,-80.4440,1.5,32.27,11111222 
ENP,ioos.station.NOAA.NDBC:HCEF1:1,2019-11-14T01:00:00Z,25.2540,-80.4440,1.5,32.27,11111222 
ENP,ioos.station.NOAA.NDBC:HCEF1:1,2019-11-14T03:00:00Z,25.2540,-80.4440,1.5,32.14,11111222 
ENP,ioos.station.NOAA.NDBC:HCEF1:1,2019-11-14T05:00:00Z,25.2540,-80.4440,1.5,32.11,11111222 
ENP,ioos.station.NOAA.NDBC:HCEF1:1,2019-11-14T07:00:00Z,25.2540,-80.4440,1.5,32.11,11111222 
ENP,ioos.station.NOAA.NDBC:HCEF1:1,2019-11-14T08:00:00Z,25.2540,-80.4440,1.5,32.22,11111222 